Huntington, WV

5:41 PM EST on February 19, 2018 (GMT -0500)
Tri-State / Ferguson

Weather History for KHTS - November, 2010

Change the Weather History Date:

Tuesday, November 23, 2010

  Actual Average Record
Temperature  
Mean Temperature 51 °F 44 °F  
Max Temperature 63 °F 53 °F 78 °F (1931)
Min Temperature 39 °F 35 °F 12 °F (1956)
Degree Days  
Heating Degree Days 14 21  
Month to date heating degree days 397 392  
Since 1 July heating degree days 652 731  
Cooling Degree Days 0 0  
Month to date cooling degree days 0 0  
Year to date cooling degree days 1406 1132  
Growing Degree Days 2 (Base 50)    
Moisture  
Dew Point 45 °F    
Average Humidity 61    
Maximum Humidity 93    
Minimum Humidity 28    
Precipitation  
Precipitation 0.33 in 0.12 in 0.97 in (1942)
Month to date precipitation 1.97 2.62  
Year to date precipitation 38.01 38.46  
Snow  
Snow 0.00 in 0.00 in 1.00 in (2005)
Month to date snowfall 0.0 0.4  
Since 1 September snowfall 0.0 0.5  
Snow Depth 0.00 in    
Sea Level Pressure  
Sea Level Pressure 30.07 in    
Wind  
Wind Speed 8 mph (WSW)    
Max Wind Speed 16 mph    
Max Gust Speed 25 mph    
Visibility 9 miles    
Events Rain    
T = Trace of Precipitation, MM = Missing Value Source: NWS Daily Summary

Daily Weather History Graph

Daily Weather History Graph

Search for Another Location

Airport or City:

Trip Planner

Search our weather history database for the weather conditions in past years. The results will help you decide how hot, cold, wet, or windy it might be!

Date:

Astronomy

Nov. 23, 2010 Rise Set
Actual Time 7:20 AM EST 5:12 PM EST
Civil Twilight 6:51 AM EST 5:41 PM EST
Nautical Twilight 6:19 AM EST 6:13 PM EST
Astronomical Twilight 5:47 AM EST 6:45 PM EST
Moon 6:54 PM EST (11/23) 9:15 AM EST (11/23)
Length of Visible Light 10h 49m
Length of Day
9h 52m
Waning Gibbous, 96% of the Moon is Illuminated
Nov 23
Waning Gibbous
Nov 28
Last Quarter
Dec 5
New
Dec 13
First Quarter
Dec 21
Full

Hourly Weather History & Observations

Time (EST) Temp. Windchill Dew Point Humidity Pressure Visibility Wind Dir Wind Speed Gust Speed Precip Events Conditions
12:51 AM 62.1 °F - 46.9 °F 58% 29.96 in 10.0 mi South 13.8 mph 21.9 mph N/A   Clear
1:51 AM 62.1 °F - 48.0 °F 60% 29.94 in 10.0 mi SSW 11.5 mph - N/A   Clear
2:51 AM 62.1 °F - 48.9 °F 62% 29.94 in 10.0 mi SSW 9.2 mph - N/A   Clear
3:51 AM 61.0 °F - 50.0 °F 67% 29.92 in 10.0 mi South 8.1 mph - N/A   Clear
4:51 AM 62.1 °F - 51.1 °F 67% 29.94 in 10.0 mi SSW 5.8 mph - N/A   Overcast
5:51 AM 60.1 °F - 55.9 °F 86% 29.95 in 7.0 mi SW 8.1 mph 20.7 mph 0.04 in Rain Light Rain
6:07 AM 60.8 °F - 57.2 °F 88% 30.00 in 2.0 mi WNW 11.5 mph 19.6 mph 0.02 in Rain Heavy Rain
6:20 AM 59.0 °F - 57.2 °F 94% 30.00 in 4.0 mi West 8.1 mph 24.2 mph 0.14 in Rain Light Rain
6:51 AM 57.9 °F - 55.9 °F 93% 30.01 in 5.0 mi WSW 5.8 mph - 0.18 in Rain Light Rain
7:51 AM 57.0 °F - 55.0 °F 93% 30.02 in 6.0 mi South 6.9 mph - 0.07 in Rain Light Rain
8:51 AM 55.9 °F - 54.0 °F 93% 30.04 in 10.0 mi South 10.4 mph - 0.04 in Rain Light Rain
9:19 AM 55.4 °F - 53.6 °F 94% 30.07 in 10.0 mi Variable 6.9 mph - 0.00 in Rain Light Rain
9:51 AM 55.0 °F - 54.0 °F 96% 30.04 in 10.0 mi SSW 3.5 mph - 0.00 in   Mostly Cloudy
10:51 AM 55.0 °F - 53.1 °F 93% 30.09 in 10.0 mi SW 8.1 mph - N/A   Scattered Clouds
11:26 AM 55.4 °F - 51.8 °F 88% 30.08 in 10.0 mi SSW 5.8 mph - N/A   Mostly Cloudy
11:51 AM 55.0 °F - 52.0 °F 89% 30.07 in 10.0 mi SSW 4.6 mph - N/A   Overcast
12:44 PM 57.2 °F - 51.8 °F 82% 30.07 in 10.0 mi SW 3.5 mph - N/A   Overcast
12:51 PM 57.0 °F - 53.1 °F 87% 30.06 in 10.0 mi SW 5.8 mph - N/A   Overcast
1:10 PM 57.2 °F - 53.6 °F 88% 30.07 in 10.0 mi SW 5.8 mph - N/A   Overcast
1:51 PM 59.0 °F - 53.1 °F 81% 30.06 in 10.0 mi Variable 5.8 mph - N/A   Overcast
2:27 PM 59.0 °F - 46.4 °F 63% 30.08 in 10.0 mi WNW 9.2 mph - N/A   Scattered Clouds
2:51 PM 57.9 °F - 37.0 °F 46% 30.08 in 10.0 mi NW 9.2 mph - N/A   Scattered Clouds
3:51 PM 57.9 °F - 25.0 °F 28% 30.11 in 10.0 mi NW 8.1 mph - N/A   Scattered Clouds
4:51 PM 55.0 °F - 28.9 °F 37% 30.12 in 10.0 mi NNW 8.1 mph - N/A   Clear
5:51 PM 51.1 °F - 28.9 °F 43% 30.14 in 10.0 mi NW 6.9 mph - N/A   Clear
6:51 PM 50.0 °F - 28.0 °F 43% 30.17 in 10.0 mi NW 8.1 mph - N/A   Clear
7:51 PM 46.9 °F - 28.0 °F 48% 30.20 in 10.0 mi NW 5.8 mph - N/A   Clear
8:51 PM 46.0 °F 42.5 °F 26.1 °F 46% 30.23 in 10.0 mi NW 6.9 mph - N/A   Clear
9:51 PM 44.1 °F 40.1 °F 28.0 °F 53% 30.25 in 10.0 mi NNW 6.9 mph - N/A   Clear
10:51 PM 42.1 °F 37.1 °F 28.0 °F 58% 30.27 in 10.0 mi NNW 8.1 mph - N/A   Clear
11:51 PM 39.9 °F 35.8 °F 28.0 °F 63% 30.28 in 10.0 mi North 5.8 mph - N/A   Clear